Flag for Germany Weather past 2 weeks in Brühl (Rhineland), North Rhine-Westphalia, Germany

Now
57 °F

Partly sunny.


Feels Like: 55 °F
Forecast: 52 / 63 °F
Wind: 8 mph from Southwest

Location: Noervenich

Current Time: May 6, 2015 at 4:34:45 PM

Latest Report: May 6, 2015 at 3:00 PM


Visibility: 13 mi

Pressure: 29.88 "Hg

Humidity: 63%

Dew point: 44 °F

Location of Brühl (Rhineland)Location

Historic Weather in Brühl (Rhineland) — Graph

°F

Brühl (Rhineland) temperature yesterday

Maximum temperature yesterday: 73 °F (at 1:00 PM)
Minimum temperature yesterday: 56 °F (at 10:00 PM)
Average temperature yesterday: 63 °F

Past Weeks' High & Low Weather Summary

 TemperatureHumidityPressure
High73 °F (May 5, 1:00 PM)98% (Apr 27, 3:00 AM)30.45 "Hg (Apr 27, 3:00 AM)
Low34 °F (Apr 23, 7:00 AM)27% (Apr 24, 4:00 PM)29.44 "Hg (May 5, 4:00 AM)
Average53 °F72%29.89 "Hg
* Reported Apr 21 3:00 PM — May 6 3:00 PM, Brühl (Rhineland), Weather by CustomWeather, © 2015

Note: Actual official high and low records may vary slightly from our data, if they occured in-between our weather recording intervals... More about our weather records

Advertising

Brühl (Rhineland) weather history for previous 24 hours

 ConditionsComfort  
Time TempWeatherWind HumidityBarometerVisibility
3:00 PM
Wed, May 6
57 °FPartly sunny.8 mph63%29.88 "Hg12 mi
2:00 PM62 °FPartly sunny.6 mph43%29.86 "Hg28 mi
1:00 PM61 °FScattered clouds.6 mph43%29.88 "Hg28 mi
12:00 PM60 °FScattered clouds.7 mph45%29.88 "Hg28 mi
10:00 AM57 °FPassing clouds.3 mph56%29.90 "Hg28 mi
9:00 AM54 °FSunny.3 mph64%29.90 "Hg19 mi
8:00 AM51 °FSunny.2 mph73%29.89 "Hg19 mi
7:00 AM48 °FSunny.2 mph82%29.88 "Hg19 mi
6:00 AM48 °FPassing clouds.2 mph83%29.87 "Hg19 mi
4:00 AM49 °FPassing clouds.2 mph81%29.87 "Hg19 mi
3:00 AM51 °FPassing clouds.2 mph78%29.86 "Hg19 mi
1:00 AM53 °FPassing clouds.2 mph73%29.84 "Hg19 mi
12:00 AM54 °FPassing clouds.1 mph72%29.83 "Hg19 mi
10:00 PM
Tue, May 5
56 °FPassing clouds.1 mph73%29.82 "Hg25 mi
9:00 PM58 °FPassing clouds.2 mph65%29.79 "Hg25 mi
8:00 PM59 °FScattered clouds.2 mph65%29.77 "Hg25 mi
7:00 PM61 °FScattered clouds.6 mph64%29.75 "Hg25 mi
6:00 PM61 °FScattered clouds.7 mph67%29.73 "Hg25 mi
4:00 PM57 °FOvercast.14 mph82%29.67 "Hg9 mi
Weather by CustomWeather, © 2015

See weather overviewHow to use our weather pages